Погода в Козельце

Украина / Черниговская область     50˚54′58″N   31˚06′59″E
темп.,
°C
ветер,
м/с
пор.,
м/с
влажн.,
%
обл.,
%
осадки,
мм/ч
давл.,
гПа
погр.,
м
6 декабря, вс
вс623:00−3˚юв512770 0.0 1033378
02:00−4˚юв511690 0.0 1034355
05:00−5˚юв511680 0.0 1034339
08:00−5˚вюв511690 0.0 1035347
11:00−3˚юв610600 0.0 1035420
14:00−2˚вюв511590 0.0 1034462
17:00−4˚вюв513720 0.0 1034383
20:00−4˚вюв512760 0.0 1034433
7 декабря, пн
пн723:00−5˚вюв613760 0.0 1034464
02:00−6˚вюв612770 0.0 1035475
05:00−7˚вюв512790 0.0 1034458
08:00−7˚вюв513780 0.0 1034449
11:00−5˚вюв611670 0.0 1033509
14:00−4˚вюв611640 0.0 1032612
17:00−5˚вюв613680 0.0 1032587
20:00−5˚вюв513640 0.0 1032537
8 декабря, вт
вт823:00−6˚вюв512660 0.0 1032501
02:00−7˚вюв512700 0.0 1031448
05:00−7˚вюв511730 0.0 1031427
08:00−7˚в511720 0.0 1030415
11:00−5˚вюв610640 0.0 1030532
14:00−4˚вюв611640 0.0 1029704
17:00−5˚в411710 0.0 1029408
20:00−5˚вюв411680 0.0 1030360
9 декабря, ср
ср923:00−6˚в410670 0.0 1029319
02:00−6˚в410700 0.0 1030331
05:00−6˚в49710 0.0 1030329
08:00−6˚в510710 0.0 1029404
11:00−4˚вюв696459 0.0 1029545
14:00−4˚вюв596832 0.0 1028542
17:00−4˚вюв5107485 0.0 1028540
20:00−3˚вюв5107691 0.0 1028519
10 декабря, чт
чт1023:00−3˚вюв5108197 0.0 1028472
02:00−3˚вюв5117696 0.0 1028464
05:00−2˚вюв6117798 0.0 1027468
08:00−2˚вюв6128399 0.0 1027462
11:00−1˚вюв61283100 0.0 1027464
14:00вюв61183100 0.0 1027494
17:00−1˚вюв71285100 0.0 1027412
20:00юв71383100 0.0 1026488